Simultaneous Nadir Overpasses (SNOs) Predictions

Prediction of SNOs over PacNW region [( 10.00, 139.50) to ( 22.70, 165.60)] between NOAA-19 and NPP Satellites:

Table of predicted SNOs over PacNW region for the next 30.0 days since TLE Epoch: 8/24/2012
Index Date (NOAA-19) Time (NOAA-19) NOAA-19 Lat,Lon Date (NPP) Time (NPP) NPP Lat,Lon Distance(km) Time Diff (sec)
1 09/02/2012 15:52:14 22.62, 148.95 09/02/2012 15:53:30 23.25, 146.16 294.86 76
2 09/03/2012 03:08:49 22.66, 152.38 09/03/2012 03:06:14 22.29, 150.63 185.13 155
3 09/14/2012 15:24:36 22.60, 155.88 09/14/2012 15:28:06 23.37, 152.51 355.37 210
4 09/15/2012 02:41:13 22.67, 159.30 09/15/2012 02:40:50 22.17, 156.98 245.15 23
5 09/15/2012 15:17:23 10.03, 155.55 09/15/2012 15:13:47 6.80, 153.35 433.17 216
